Regional Weather Roundup
Issued by NWS

Home | Current Version | Previous Version | Text Only | Print | Product List | Glossary On
Versions: 1 2 3 4 5 6 7 8 9 10 11 12 13 14 15 16 17 18 19 20 21 22 23 24 25 26 27 28 29 30 31 32 33 34 35 36 37 38 39 40 41 42 43 44 45 46 47 48 49 50
000
ASUS44 KJAN 032310
RWRMS

MISSISSIPPI HOURLY WEATHER ROUNDUP
NATIONAL WEATHER SERVICE JACKSON MS
500 PM CST TUE MAR 03 2015

NOTE: "FAIR: INDICATES FEW OR NO CLOUDS BELOW 12,000 FEET WITH NO
SIGNIFICANT WEATHER AND/OR OBSTRUCTIONS TO VISIBILITY.

MSZ001>002-007>008-010>013-018>021-025>028-034>036-040000-
NORTHWEST MISSISSIPPI

CITY           SKY/WX    TMP DP  RH WIND       PRES   REMARKS
CLARKSDALE     CLOUDY    55  55 100 W3        29.94R VSB<1/4
CLEVELAND      FAIR      67  67 100 SW9       29.91F
GREENWOOD      CLOUDY    72  65  78 SW8       29.92F
GREENVILLE     SUNNY     71  65  81 S14       29.90F
OLIVE BRANCH   CLOUDY    55  55 100 S10       29.92F
OXFORD           N/A     63  63 100 SW3       29.95S FOG
TUNICA         HVY RAIN  54  54 100 CALM      29.93F
$$

MSZ003>006-009-014>017-022>024-029>033-037>039-040000-
NORTHEAST MISSISSIPPI

CITY           SKY/WX    TMP DP  RH WIND       PRES   REMARKS
COLUMBUS AFB   CLEAR     73  64  74 S14       29.95F
CORINTH        CLOUDY    63  59  88 SE5       29.93F FOG
GOLDN TRIANGLE MOCLDY    72  64  78 S12       29.96F
STARKVILLE     CLOUDY    72  63  73 S8        29.96S
TUPELO         CLOUDY    63  61  93 CALM      29.95S
$$

MSZ040-058-040000-
CENTRAL MISSISSIPPI

CITY           SKY/WX    TMP DP  RH WIND       PRES   REMARKS
JACKSON INTL   LGT RAIN  70  67  90 S9        29.96F
JACKSON HAWKNS CLOUDY    69  67  93 S8        29.96F
MERIDIAN KEY   MOSUNNY   73  63  70 S12       29.99F
MERIDIAN NAS   MOSUNNY   73  63  70 S10       30.00F
VICKSBURG      PTSUNNY   73  67  81 SE8       29.93F
$$

MSZ059>079-040000-
SOUTH MISSISSIPPI

CITY           SKY/WX    TMP DP  RH WIND       PRES   REMARKS
BROOKHAVEN       N/A     70  70 100 S7        29.98F
HATTIESBURG    CLOUDY    72  65  78 S14       30.02R
MCCOMB         CLOUDY    70  68  93 S8        29.97F
NATCHEZ        MOSUNNY   77  64  65 S13       29.94S
PINE BELT      CLOUDY    73  63  68 S18       30.01S
$$

MSZ080>082-040000-
COASTAL MISSISSIPPI

CITY           SKY/WX    TMP DP  RH WIND       PRES   REMARKS
BAY ST LOUIS   MOSUNNY   70  61  73 SE13      30.03F
BILOXI         SUNNY     69  67  91 SE10      30.04S
PASCAGOULA     MOSUNNY   69  64  84 SE13      30.05S
GULFPORT       MOSUNNY   67  63  87 SE13      30.03F
$$


USA.gov is the U.S. government's official web portal to all federal, state and local government web resources and services.